Location: ?????
(38.2579°N, 22.9711°E)
Time: 13:40:20
(UTC+00:00)

Cosmos 2084 Rocket - Pass Details

Date: 13 December 2025
Orbit: 545 x 569 km, 62.8° (Epoch: 17 January)

Event Time Altitude Azimuth Distance (km) Brightness Sun altitude
Rises 15:41:18 0° 326° (NW) 2,770 7.0 -6.6°
Reaches altitude 10° 15:43:32 10° 326° (NW) 1,871 6.2 -7.0°
Maximum altitude 15:47:46 90° 214° (SW) 574 3.4 -7.8°
Drops below altitude 10° 15:51:58 10° 148° (SSE) 1,861 5.9 -8.5°
Sets 15:54:11 0° 148° (SSE) 2,753 6.8 -8.9°
